SCP
0 0 0 0 0 0 0 0 0 0 0 0 0 0 0 0 0 0 0 0 0 0 0 0 0 0 0 0 0 0 0 0 0 0 0 0 0 0
0 0 0 0 0 0 0 0 0 0 0 0 0 0 0 0 0 0 0 0 0 0 0 0 0 0 0 0 0 0 0 0 0 0 0 0 0 0
0 0 0 0 0 0 0 0 0 0 0 0 0 0 0 0 0 0 0 0 0 0 0 0 0 0 0 0 0 0 0 0 0 0 0 0 0 0
0 0 0 0 0 0 0 0 0 0 0 0 0 0 0 0 0 0 0 0 0 0 0 0 0 0 0 0 0 0 0 0 0 0 0 0 0 0
0 0 0 0 0 0 0 0 0 0 0 0 0 0 0 0 0 0 0 0 0 0 0 0 0 0 0 0 0 0 0 0 0 0 0 0 0 0
0 0 0 0 0 0 0 0 0 0 0 0 0 0 0 0 0 0 0 0 0 0 0 0 0 0 0 0 0 0 0 0 0 0 0 0 0 0
0 0 0 0 0 0 0 0 0 0 0 0 0 0 0 0 0 0 0 0 0 0 0 0 0 0 0 0 0 0 0 0 0 0 0 0 0 0
0 0 0 0 0 0 0 0 0 0 0 0 0 0 0 0 0 0 0 0 0 0 0 0 0 0 0 0 0 0 0 0 0 0 0 0 0 0
0 0 0 0 0 0 0 0 0 0 0 0 0 0 0 0 0 0 0 0 0 0 0 0 0 0 0 0 0 0 0 0 0 0 0 0 0 0
0 0 0 0 0 0 0 0 0 0 0 0 0 0 0 0 0 0 0 0 0 0 0 0 0 0 0 0 0 0 0 0 0 0 0 0 0 0
0 0 0 0 0 0 0 0 0 0 0 0 0 0 0 0 0 0 0 0 0 0 0 0 0 0 0 0 0 0 0 0 0 0 0 0 0 0
0 0 0 0 0 0 0 0 0 0 0 0 0 0 0 0 0 0 0 0 0 0 0 0 0 0 0 0 0 0 0 0 0 0 0 0 0 0
0 0 0 0 0 0 0 0 0 0 0 0 0 0 0 0 0 0 0 0 0 0 0 0 0 0 0 0 0 0 0 0 0 0 0 0 0 0
0 0 0 0 0 0 0 0 0 0 0 0 0 0 0 0 0 0 0 0 0 0 0 0 0 0 0 0 0 0 0 0 0 0 0 0 0 0
0 0 0 0 0 0 0 0 0 0 0 0 0 0 0 0 0 0 0 0 0 0 0 0 0 0 0 0 0 0 0 0 0 0 0 0 0 0
0 0 0 0 0 0 0 0 0 0 0 0 0 0 0 0 0 0 0 0 0 0 0 0 0 0 0 0 0 0 0 0 0 0 0 0 0 0
0 0 0 0 0 0 0 0 0 0 0 0 0 0 0 0 0 0 0 0 0 0 0 0 0 0 0 0 0 0 0 0 0 0 0 0 0 0
0 0 0 0 0 0 0 0 0 0 0 0 0 0 0 0 0 0 0 0 0 0 0 0 0 0 0 0 0 0 0 0 0 0 0 0 0 0
0 0 0 0 0 0 0 0 0 0 0 0 0 0 0 0 0 0 0 0 0 0 0 0 0 0 0 0 0 0 0 0 0 0 0 0 0 0
0 0 0 0 0 0 0 0 0 0 0 0 0 0 0 0 0 0 0 0 0 0 0 0 0 0 0 0 0 0 0 0 0 0 0 0 0 0
0 0 0 0 0 0 0 0 0 0 0 0 0 0 0 0 0 0 0 0 0 0 0 0 0 0 0 0 0 0 0 0 0 0 0 0 0 0
0 0 0 0 0 0 0 0 0 0 0 0 0 0 0 0 0 0 0 0 0 0 0 0 0 0 0 0 0 0 0 0 0 0 0 0 0 0
0 0 0 0 0 0 0 0 0 0 0 0 0 0 0 0 0 0 0 0 0 0 0 0 0 0 0 0 0 0 0 0 0 0 0 0 0 0
Wind_Speed
2 2 2 2 2 2 2 2 3 3 4 3 2 2 2 1 3 2 3 7 9 10 11 12 12 12 12 13 13 14 14 14 14 15 15 15 16 16
2 2 3 2 2 2 2 2 3 3 4 3 2 1 1 2 3 2 3 7 9 10 12 12 13 13 13 13 14 14 15 15 15 15 15 16 16 17
2 3 3 2 2 2 2 2 2 2 5 5 2 2 2 2 2 2 3 3 5 10 12 13 13 13 13 14 14 14 15 15 15 16 16 16 16 17
3 3 3 2 2 2 2 2 2 2 4 6 4 2 3 2 3 4 4 4 4 9 12 12 13 13 14 14 14 14 14 15 15 16 16 16 17 17
3 3 3 3 3 2 2 2 2 2 3 4 5 3 2 2 3 4 4 4 5 7 9 11 12 14 14 14 14 14 14 15 15 15 15 16 16 17
2 3 3 4 4 3 3 3 2 3 3 4 4 4 3 2 2 3 4 4 5 5 7 8 10 13 14 14 14 14 15 15 15 15 15 16 16 16
2 3 3 3 3 3 3 3 3 3 3 3 4 4 3 3 3 3 5 5 5 3 4 5 5 5 7 11 12 14 15 16 15 15 16 16 16 16
3 3 3 3 3 5 5 4 4 4 4 4 4 5 5 4 3 4 4 5 5 2 4 7 4 6 5 5 10 14 15 16 16 16 15 15 15 15
3 2 2 2 2 3 4 4 5 5 6 5 6 6 6 5 4 5 5 6 7 5 4 7 4 6 5 6 13 14 14 14 15 15 16 16 16 16
3 3 3 2 2 2 2 3 4 4 5 5 6 6 6 5 5 5 6 6 7 5 3 6 4 5 5 5 11 13 14 15 16 16 16 17 16 16
3 2 3 3 4 3 2 3 4 4 5 6 8 8 9 9 6 3 3 4 6 5 2 4 4 5 6 5 7 11 13 15 16 16 17 16 16 15
2 2 3 4 4 4 3 4 5 5 3 4 5 7 6 6 7 5 4 4 4 5 2 2 3 4 6 4 4 5 7 11 14 16 17 17 16 9
2 2 2 4 5 5 4 4 5 4 3 4 4 4 4 4 4 4 4 5 5 6 3 2 3 3 4 6 5 4 5 5 6 9 13 15 15 11
3 2 3 5 5 6 5 5 6 4 2 3 4 4 4 4 4 4 5 5 6 7 6 4 5 5 5 6 7 5 4 5 6 6 6 10 12 14
2 3 4 5 5 4 5 6 4 2 2 3 4 5 4 4 3 3 3 4 5 6 5 5 5 5 5 7 7 6 7 6 5 5 5 6 6 6
2 3 4 5 4 3 3 4 2 2 3 4 4 4 3 3 3 3 3 3 4 5 4 5 5 5 6 7 7 8 6 6 6 6 7 7 6 5
1 0 1 1 2 2 2 2 2 2 3 3 3 4 4 4 4 3 3 3 3 5 5 4 4 5 7 7 7 8 7 7 6 6 6 7 7 6
1 2 3 3 3 3 3 3 3 3 3 3 3 3 4 4 4 4 3 4 5 5 5 5 4 5 4 5 9 8 6 6 6 5 5 7 9 6
2 3 4 4 4 3 3 3 3 3 2 3 3 3 4 4 4 4 4 4 5 6 5 4 3 3 5 8 6 6 6 6 6 6 6 6 9 9
3 4 4 4 3 3 3 3 3 3 3 3 3 3 3 4 4 5 5 5 6 6 6 4 4 4 6 7 8 7 8 7 6 7 7 7 8 11
4 4 4 3 3 3 4 3 4 4 4 3 4 4 4 4 4 5 5 6 6 6 7 6 6 7 5 4 7 8 6 9 9 7 7 7 8 7
4 4 4 4 4 4 4 3 3 4 4 4 4 4 4 4 5 6 5 5 5 6 8 7 6 5 4 5 8 9 10 8 9 12 13 11 7 7
4 4 4 4 4 4 3 4 5 4 4 4 4 4 4 4 4 5 5 5 5 6 7 7 5 4 5 6 7 8 10 10 8 8 7 10 14 17
Wind_Direction
202 205 217 227 222 232 218 201 215 259 273 249 234 239 230 232 285 261 270 289 293 295 298 298 297 297 297 296 296 295 295 296 297 296 295 295 295 295
204 210 226 232 231 230 222 221 221 229 260 265 251 266 260 284 298 277 269 296 287 291 294 293 294 295 295 294 295 294 295 295 296 296 296 296 295 294
211 214 230 228 232 238 228 226 234 227 252 275 279 282 268 273 293 282 274 273 281 287 290 290 293 293 293 293 293 294 295 295 295 295 295 295 296 294
213 212 230 229 233 238 237 235 239 238 243 267 278 279 270 270 276 278 287 284 279 284 287 290 291 292 293 293 293 294 296 297 296 295 296 295 294 295
213 213 225 219 230 235 236 241 246 255 248 260 273 275 272 282 287 285 283 277 284 286 286 289 291 293 293 294 294 295 295 295 295 295 295 295 294 294
221 219 223 221 226 228 234 238 243 252 256 259 269 276 276 275 279 288 298 292 292 292 286 291 291 292 291 293 293 293 292 292 292 294 294 294 295 295
229 227 226 224 234 234 236 236 235 241 253 257 266 277 276 288 283 284 291 301 289 273 293 290 288 282 284 286 288 289 291 292 291 292 292 293 293 293
236 241 238 228 240 245 251 253 239 231 237 243 256 264 271 276 285 288 291 301 292 277 290 285 272 274 276 272 285 290 291 292 293 294 294 295 296 295
234 242 253 251 229 231 253 262 258 252 243 243 251 258 268 268 274 277 275 276 274 281 291 279 268 271 277 282 288 289 292 295 297 298 299 298 297 296
235 230 238 250 254 250 252 262 262 257 258 252 251 259 262 262 252 260 269 275 276 268 267 271 277 279 287 280 285 288 294 297 298 300 301 300 298 297
241 233 233 236 252 255 249 260 274 279 280 273 275 277 279 280 278 271 267 273 278 274 246 260 284 298 288 273 275 284 291 295 297 299 300 301 300 300
249 243 241 244 253 250 240 246 263 273 283 290 284 285 282 279 278 254 247 254 270 276 244 258 278 308 298 277 274 281 284 289 294 298 298 298 299 299
247 251 254 256 262 264 264 255 267 284 277 275 280 281 280 272 265 258 248 242 252 260 257 264 270 266 262 289 292 279 278 285 292 291 291 294 297 296
247 249 249 256 265 268 267 271 286 295 278 271 272 272 274 275 276 273 266 258 254 261 263 254 254 255 268 280 285 291 287 282 283 284 284 292 295 294
259 265 274 271 271 270 274 281 286 268 263 268 271 274 278 280 283 284 277 274 274 270 266 262 261 264 256 263 274 284 296 293 279 280 288 290 289 291
261 271 272 272 274 278 277 268 256 246 244 255 272 285 298 293 278 273 279 291 290 285 270 261 257 256 263 264 266 276 278 279 287 289 290 288 286 280
238 298 276 268 260 271 277 273 267 264 258 265 270 280 287 289 293 296 277 275 271 287 295 292 274 263 257 260 266 264 270 275 276 284 290 290 285 278
193 226 237 240 244 249 256 269 265 259 261 266 269 273 281 288 293 295 292 276 275 281 286 294 306 312 299 265 240 256 265 273 283 286 285 286 288 283
205 230 235 239 244 246 247 253 258 259 260 257 263 269 275 280 285 286 287 290 286 282 282 282 279 281 291 293 277 244 268 283 289 287 281 275 281 286
228 232 236 241 243 245 247 251 258 258 251 253 257 261 261 268 277 280 279 278 285 289 287 280 267 262 264 278 287 284 272 272 275 278 282 283 278 284
241 248 247 244 242 243 246 248 249 251 252 250 252 254 255 258 266 271 276 278 279 283 284 282 279 282 280 282 282 284 278 266 272 274 281 290 293 292
241 242 247 248 247 245 245 244 249 254 254 253 254 253 252 252 259 265 268 272 274 276 281 285 289 290 279 273 278 286 296 299 291 285 274 263 270 277
244 245 244 244 244 244 243 245 248 254 253 252 254 255 254 255 257 261 265 267 272 278 286 290 292 285 278 277 283 289 294 302 306 305 291 281 275 274